Location: Nitra
(0.0000°N, 18.0833°E)
Time: 14:13:01
(UTC+02:00)

N. Korean satellite - Pass Details

Date: 27 April 2021
Orbit: 450 x 501 km, 97.2° (Epoch: 15 May)

Event Time Altitude Azimuth Distance (km) Brightness Sun altitude
Rises 06:14:32 0° 352° (N) 2,460 10.2 -7.5°
Reaches altitude 10° 06:16:47 10° 339° (NNW) 1,584 9.1 -6.9°
Maximum altitude 06:19:39 26° 281° (W) 929 7.5 -6.2°
Drops below altitude 10° 06:22:31 10° 223° (SW) 1,580 8.7 -5.5°
Sets 06:24:46 0° 210° (SSW) 2,453 9.7 -5.0°
